EW0596 Weather Reports


time (UTC)temp
C
wind
direction
speed
KPH
gust
KPH
rain 1hr
cm
rain 24hr
cm
rain mn
cm
humidity
%
barometer
mb
20260504201510 22 144 1.6 11.3 0.00 0.00 0.00 37 1009.3
20260504200004 22 134 3.2 12.9 0.00 0.00 0.00 35 1009.3
20260504194601 22 127 1.6 11.3 0.00 0.00 0.00 41 1009.3
20260504193059 21 117 3.2 9.7 0.00 0.00 0.00 39 1009.5
20260504191557 21 70 1.6 9.7 0.00 0.00 0.00 36 1009.4
20260504190057 21 123 1.6 14.5 0.00 0.00 0.00 38 1009.4
20260504184554 21 119 1.6 9.7 0.00 0.00 0.00 41 1009.5
20260504183037 21 192 0.0 6.4 0.00 0.00 0.00 41 1009.5
20260504181523 21 121 0.0 12.9 0.00 0.00 0.00 40 1009.6
20260504180001 21 162 0.0 12.9 0.00 0.00 0.00 40 1009.7
20260504174606 20 142 1.6 9.7 0.00 0.00 0.00 38 1009.7
20260504173057 20 136 3.2 14.5 0.00 0.00 0.00 42 1009.7
20260504171548 19 128 0.0 6.4 0.00 0.00 0.00 45 1009.7
20260504081529 8 5 0.0 0.0 0.00 0.00 0.00 33 1008.7
20260504050009 12 5 0.0 1.6 0.00 0.00 0.00 64 1008.4
20260504044517 12 5 0.0 1.6 0.00 0.00 0.00 64 1008.3
20260504043004 12 5 0.0 1.6 0.00 0.00 0.00 64 1008.2
20260504041557 14 5 0.0 1.6 0.00 0.00 0.00 63 1008.1
20260504034553 16 9 3.2 6.4 0.00 0.00 0.00 52 1007.8
20260504033032 17 360 3.2 6.4 0.00 0.00 0.00 51 1007.7
20260504031528 17 5 4.8 6.4 0.00 0.00 0.00 48 1007.7
20260504030038 18 5 3.2 4.8 0.00 0.00 0.00 49 1007.7
20260504024518 19 317 3.2 6.4 0.00 0.00 0.00 47 1007.7
20260504023016 21 279 0.0 3.2 0.00 0.00 0.00 45 1007.7
20260504021510 23 279 1.6 6.4 0.00 0.00 0.00 39 1007.7
20260504020005 25 210 0.0 1.6 0.00 0.00 0.00 31 1007.8
20260504014551 25 172 0.0 8.0 0.00 0.00 0.00 31 1007.9
20260504013049 25 281 0.0 3.2 0.00 0.00 0.00 32 1008.0
20260504011541 25 224 0.0 6.4 0.00 0.00 0.00 33 1008.2
20260504010043 25 236 0.0 4.8 0.00 0.00 0.00 31 1008.2
20260504004536 25 262 0.0 4.8 0.00 0.00 0.00 30 1008.4
20260504003031 26 225 1.6 4.8 0.00 0.00 0.00 28 1008.6
20260504001523 26 271 1.6 8.0 0.00 0.00 0.00 28 1008.7
20260504000019 26 257 0.0 8.0 0.00 0.00 0.00 29 1008.8
20260503234551 26 206 1.6 8.0 0.00 0.00 0.00 31 1008.9
20260503233049 26 190 1.6 8.0 0.00 0.00 0.00 30 1009.1
20260503231541 26 264 3.2 11.3 0.00 0.00 0.00 32 1009.3
20260503230039 26 221 1.6 12.9 0.00 0.00 0.00 33 1009.4
20260503224532 26 263 0.0 8.0 0.00 0.00 0.00 33 1009.8
20260503223027 26 202 0.0 6.4 0.00 0.00 0.00 33 1010.0
20260503221523 26 246 1.6 8.0 0.00 0.00 0.00 27 1010.2
20260503220019 26 185 3.2 9.7 0.00 0.00 0.00 28 1010.5
20260503214601 25 316 0.0 11.3 0.00 0.00 0.00 27 1010.7
20260503213107 25 219 1.6 8.0 0.00 0.00 0.00 28 1011.0
20260503211552 25 209 1.6 8.0 0.00 0.00 0.00 27 1011.0
20260503210056 25 263 1.6 6.4 0.00 0.00 0.00 27 1011.4
20260503204551 25 207 3.2 8.0 0.00 0.00 0.00 27 1011.7
20260503203038 24 242 1.6 6.4 0.00 0.00 0.00 30 1012.0